Year,Month,Day,Hour,Minute,Value (Times are PST for windgust in km/hr)
2019,04,06,00,00,17.70
2019,04,06,00,01,19.30
2019,04,06,00,02,24.20
2019,04,06,00,03,19.30
2019,04,06,00,04,19.30
2019,04,06,00,05,22.50
2019,04,06,00,06,14.50
2019,04,06,00,07,12.90
2019,04,06,00,08,14.50
2019,04,06,00,09,14.50
2019,04,06,00,10,20.90
2019,04,06,00,11,20.90
2019,04,06,00,12,14.50
2019,04,06,00,13,17.70
2019,04,06,00,14,12.90
2019,04,06,00,15,12.90
2019,04,06,00,16,12.90
2019,04,06,00,17,17.70
2019,04,06,00,18,17.70
2019,04,06,00,19,16.10
2019,04,06,00,20,14.50
2019,04,06,00,21,17.70
2019,04,06,00,22,14.50
2019,04,06,00,23,16.10
2019,04,06,00,24,8.10
2019,04,06,00,25,12.90
2019,04,06,00,26,12.90
2019,04,06,00,27,17.70
2019,04,06,00,28,14.50
2019,04,06,00,29,17.70
2019,04,06,00,30,20.90
2019,04,06,00,31,17.70
2019,04,06,00,32,17.70
2019,04,06,00,33,24.20
2019,04,06,00,34,16.10
2019,04,06,00,35,17.70
2019,04,06,00,36,17.70
2019,04,06,00,37,12.90
2019,04,06,00,38,14.50
2019,04,06,00,39,12.90
2019,04,06,00,40,11.30
2019,04,06,00,41,16.10
2019,04,06,00,42,12.90
2019,04,06,00,43,12.90
2019,04,06,00,44,8.10
2019,04,06,00,45,12.90
2019,04,06,00,46,19.30
2019,04,06,00,47,19.30
2019,04,06,00,48,12.90
2019,04,06,00,49,11.30
2019,04,06,00,50,8.10
2019,04,06,00,51,6.40
2019,04,06,00,52,11.30
2019,04,06,00,53,14.50
2019,04,06,00,54,11.30
2019,04,06,00,55,9.60
2019,04,06,00,56,11.30
2019,04,06,00,57,12.90
2019,04,06,00,58,14.50
2019,04,06,00,59,17.70
2019,04,06,01,00,14.50
2019,04,06,01,01,8.10
2019,04,06,01,02,12.90
2019,04,06,01,03,12.90
2019,04,06,01,04,9.60
2019,04,06,01,05,12.90
2019,04,06,01,06,12.90
2019,04,06,01,07,11.30
2019,04,06,01,08,19.30
2019,04,06,01,09,16.10
2019,04,06,01,10,9.60
2019,04,06,01,11,12.90
2019,04,06,01,12,17.70
2019,04,06,01,13,14.50
2019,04,06,01,14,19.30
2019,04,06,01,15,19.30
2019,04,06,01,16,14.50
2019,04,06,01,17,16.10
2019,04,06,01,18,14.50
2019,04,06,01,19,8.10
2019,04,06,01,20,6.40
2019,04,06,01,21,14.50
2019,04,06,01,22,12.90
2019,04,06,01,23,17.70
2019,04,06,01,24,16.10
2019,04,06,01,25,17.70
2019,04,06,01,26,12.90
2019,04,06,01,27,4.80
2019,04,06,01,28,11.30
2019,04,06,01,29,8.10
2019,04,06,01,30,8.10
2019,04,06,01,31,6.40
2019,04,06,01,32,9.60
2019,04,06,01,33,9.60
2019,04,06,01,34,8.10
2019,04,06,01,35,8.10
2019,04,06,01,36,4.80
2019,04,06,01,37,6.40
2019,04,06,01,38,8.10
2019,04,06,01,39,8.10
2019,04,06,01,40,6.40
2019,04,06,01,41,6.40
2019,04,06,01,42,8.10
2019,04,06,01,43,6.40
2019,04,06,01,44,4.80
2019,04,06,01,45,4.80
2019,04,06,01,46,4.80
2019,04,06,01,47,3.20
2019,04,06,01,48,3.20
2019,04,06,01,49,3.20
2019,04,06,01,50,4.80
2019,04,06,01,51,4.80
2019,04,06,01,52,3.20
2019,04,06,01,53,4.80
2019,04,06,01,54,4.80
2019,04,06,01,55,6.40
2019,04,06,01,56,3.20
2019,04,06,01,57,1.60
2019,04,06,01,58,3.20
2019,04,06,01,59,6.40
2019,04,06,02,00,6.40
2019,04,06,02,01,6.40
2019,04,06,02,02,3.20
2019,04,06,02,03,1.60
2019,04,06,02,04,1.60
2019,04,06,02,06,3.20
2019,04,06,02,07,1.60
2019,04,06,02,09,1.60
2019,04,06,02,10,1.60
2019,04,06,02,11,1.60
2019,04,06,02,13,1.60
2019,04,06,02,14,1.60
2019,04,06,02,15,4.80
2019,04,06,02,16,3.20
2019,04,06,02,17,3.20
2019,04,06,02,18,3.20
2019,04,06,02,19,1.60
2019,04,06,02,20,4.80
2019,04,06,02,21,4.80
2019,04,06,02,22,4.80
2019,04,06,02,24,6.40
2019,04,06,02,25,4.80
2019,04,06,02,26,3.20
2019,04,06,02,27,8.10
2019,04,06,02,28,6.40
2019,04,06,02,29,8.10
2019,04,06,02,30,4.80
2019,04,06,02,31,4.80
2019,04,06,02,32,3.20
2019,04,06,02,33,6.40
2019,04,06,02,34,4.80
2019,04,06,02,35,6.40
2019,04,06,02,36,6.40
2019,04,06,02,37,6.40
2019,04,06,02,38,6.40
2019,04,06,02,39,6.40
2019,04,06,02,40,6.40
2019,04,06,02,41,8.10
2019,04,06,02,42,4.80
2019,04,06,02,43,4.80
2019,04,06,02,44,6.40
2019,04,06,02,45,4.80
2019,04,06,02,46,6.40
2019,04,06,02,47,3.20
2019,04,06,02,48,6.40
2019,04,06,02,49,8.10
2019,04,06,02,50,8.10
2019,04,06,02,51,8.10
2019,04,06,02,52,8.10
2019,04,06,02,53,8.10
2019,04,06,02,54,6.40
2019,04,06,02,55,3.20
2019,04,06,02,56,6.40
2019,04,06,02,57,6.40
2019,04,06,02,58,9.60
2019,04,06,02,59,8.10
2019,04,06,03,00,8.10
2019,04,06,03,01,4.80
2019,04,06,03,02,3.20
2019,04,06,03,03,9.60
2019,04,06,03,04,6.40
2019,04,06,03,05,8.10
2019,04,06,03,06,9.60
2019,04,06,03,07,12.90
2019,04,06,03,08,9.60
2019,04,06,03,09,6.40
2019,04,06,03,10,4.80
2019,04,06,03,11,6.40
2019,04,06,03,12,4.80
2019,04,06,03,13,9.60
2019,04,06,03,14,4.80
2019,04,06,03,15,8.10
2019,04,06,03,16,9.60
2019,04,06,03,17,9.60
2019,04,06,03,18,4.80
2019,04,06,03,19,4.80
2019,04,06,03,20,8.10
2019,04,06,03,21,8.10
2019,04,06,03,22,6.40
2019,04,06,03,23,9.60
2019,04,06,03,24,9.60
2019,04,06,03,25,11.30
2019,04,06,03,26,6.40
2019,04,06,03,27,8.10
2019,04,06,03,28,14.50
2019,04,06,03,29,9.60
2019,04,06,03,30,6.40
2019,04,06,03,31,6.40
2019,04,06,03,32,6.40
2019,04,06,03,33,12.90
2019,04,06,03,34,11.30
2019,04,06,03,35,8.10
2019,04,06,03,36,9.60
2019,04,06,03,37,6.40
2019,04,06,03,38,11.30
2019,04,06,03,39,12.90
2019,04,06,03,40,8.10
2019,04,06,03,41,9.60
2019,04,06,03,42,9.60
2019,04,06,03,43,9.60
2019,04,06,03,44,8.10
2019,04,06,03,45,6.40
2019,04,06,03,46,6.40
2019,04,06,03,47,16.10
2019,04,06,03,48,17.70
2019,04,06,03,49,12.90
2019,04,06,03,50,11.30
2019,04,06,03,51,14.50
2019,04,06,03,52,12.90
2019,04,06,03,53,16.10
2019,04,06,03,54,17.70
2019,04,06,03,55,19.30
2019,04,06,03,56,19.30
2019,04,06,03,57,8.10
2019,04,06,03,58,14.50
2019,04,06,03,59,12.90
2019,04,06,04,00,11.30
2019,04,06,04,01,8.10
2019,04,06,04,02,8.10
2019,04,06,04,03,8.10
2019,04,06,04,04,14.50
2019,04,06,04,05,17.70
2019,04,06,04,06,12.90
2019,04,06,04,07,17.70
2019,04,06,04,08,19.30
2019,04,06,04,09,14.50
2019,04,06,04,10,12.90
2019,04,06,04,11,17.70
2019,04,06,04,12,14.50
2019,04,06,04,13,11.30
2019,04,06,04,14,8.10
2019,04,06,04,15,12.90
2019,04,06,04,16,12.90
2019,04,06,04,17,11.30
2019,04,06,04,18,9.60
2019,04,06,04,19,11.30
2019,04,06,04,20,14.50
2019,04,06,04,21,16.10
2019,04,06,04,22,11.30
2019,04,06,04,23,11.30
2019,04,06,04,24,9.60
2019,04,06,04,25,16.10
2019,04,06,04,26,14.50
2019,04,06,04,27,16.10
2019,04,06,04,28,29.00
2019,04,06,04,29,27.40
2019,04,06,04,30,14.50
2019,04,06,04,31,19.30
2019,04,06,04,32,14.50
2019,04,06,04,33,17.70
2019,04,06,04,34,16.10
2019,04,06,04,35,12.90
2019,04,06,04,36,12.90
2019,04,06,04,37,11.30
2019,04,06,04,38,11.30
2019,04,06,04,39,17.70
2019,04,06,04,40,12.90
2019,04,06,04,41,17.70
2019,04,06,04,42,17.70
2019,04,06,04,43,20.90
2019,04,06,04,44,17.70
2019,04,06,04,45,14.50
2019,04,06,04,46,12.90
2019,04,06,04,47,16.10
2019,04,06,04,48,19.30
2019,04,06,04,49,24.20
2019,04,06,04,50,20.90
2019,04,06,04,51,16.10
2019,04,06,04,52,25.70
2019,04,06,04,53,20.90
2019,04,06,04,54,17.70
2019,04,06,04,55,30.60
2019,04,06,04,56,24.20
2019,04,06,04,57,24.20
2019,04,06,04,58,19.30
2019,04,06,04,59,16.10
2019,04,06,05,00,19.30
2019,04,06,05,01,24.20
2019,04,06,05,02,27.40
2019,04,06,05,03,27.40
2019,04,06,05,04,25.70
2019,04,06,05,05,38.60
2019,04,06,05,06,20.90
2019,04,06,05,07,27.40
2019,04,06,05,08,20.90
2019,04,06,05,09,20.90
2019,04,06,05,10,12.90
2019,04,06,05,11,19.30
2019,04,06,05,12,16.10
2019,04,06,05,13,30.60
2019,04,06,05,14,16.10
2019,04,06,05,15,12.90
2019,04,06,05,16,24.20
2019,04,06,05,17,32.20
2019,04,06,05,18,16.10
2019,04,06,05,19,30.60
2019,04,06,05,20,19.30
2019,04,06,05,21,14.50
2019,04,06,05,22,17.70
2019,04,06,05,23,19.30
2019,04,06,05,24,19.30
2019,04,06,05,25,20.90
2019,04,06,05,26,14.50
2019,04,06,05,27,32.20
2019,04,06,05,28,37.00
2019,04,06,05,29,25.70
2019,04,06,05,30,32.20
2019,04,06,05,31,29.00
2019,04,06,05,32,38.60
2019,04,06,05,33,22.50
2019,04,06,05,34,29.00
2019,04,06,05,35,30.60
2019,04,06,05,36,30.60
2019,04,06,05,37,27.40
2019,04,06,05,38,25.70
2019,04,06,05,39,35.40
2019,04,06,05,40,35.40
2019,04,06,05,41,35.40
2019,04,06,05,42,27.40
2019,04,06,05,43,40.20
2019,04,06,05,44,45.10
2019,04,06,05,45,24.20
2019,04,06,05,46,19.30
2019,04,06,05,47,22.50
2019,04,06,05,48,41.80
2019,04,06,05,49,25.70
2019,04,06,05,50,22.50
2019,04,06,05,51,38.60
2019,04,06,05,52,33.80
2019,04,06,05,53,30.60
2019,04,06,05,54,30.60
2019,04,06,05,55,48.30
2019,04,06,05,56,30.60
2019,04,06,05,57,30.60
2019,04,06,05,58,29.00
2019,04,06,05,59,24.20
2019,04,06,06,00,41.80
2019,04,06,06,01,24.20
2019,04,06,06,02,29.00
2019,04,06,06,03,33.80
2019,04,06,06,04,54.70
2019,04,06,06,05,45.10
2019,04,06,06,06,25.70
2019,04,06,06,07,29.00
2019,04,06,06,08,29.00
2019,04,06,06,09,33.80
2019,04,06,06,10,38.60
2019,04,06,06,11,46.70
2019,04,06,06,12,24.20
2019,04,06,06,13,40.20
2019,04,06,06,14,35.40
2019,04,06,06,15,40.20
2019,04,06,06,16,37.00
2019,04,06,06,17,45.10
2019,04,06,06,18,27.40
2019,04,06,06,19,25.70
2019,04,06,06,20,51.50
2019,04,06,06,21,51.50
2019,04,06,06,22,41.80
2019,04,06,06,23,38.60
2019,04,06,06,24,35.40
2019,04,06,06,25,41.80
2019,04,06,06,26,37.00
2019,04,06,06,27,25.70
2019,04,06,06,28,32.20
2019,04,06,06,29,43.50
2019,04,06,06,30,38.60
2019,04,06,06,31,35.40
2019,04,06,06,32,29.00
2019,04,06,06,33,40.20
2019,04,06,06,34,40.20
2019,04,06,06,35,24.20
2019,04,06,06,36,41.80
2019,04,06,06,37,41.80
2019,04,06,06,38,48.30
2019,04,06,06,39,53.10
2019,04,06,06,40,30.60
2019,04,06,06,41,46.70
2019,04,06,06,42,41.80
2019,04,06,06,43,38.60
2019,04,06,06,44,35.40
2019,04,06,06,45,29.00
2019,04,06,06,46,33.80
2019,04,06,06,47,35.40
2019,04,06,06,48,24.20
2019,04,06,06,49,30.60
2019,04,06,06,50,32.20
2019,04,06,06,51,51.50
2019,04,06,06,52,33.80
2019,04,06,06,53,38.60
2019,04,06,06,54,33.80
2019,04,06,06,55,38.60
2019,04,06,06,56,17.70
2019,04,06,06,57,19.30
2019,04,06,06,58,32.20
2019,04,06,06,59,40.20
2019,04,06,07,00,43.50
2019,04,06,07,01,41.80
2019,04,06,07,02,38.60
2019,04,06,07,03,27.40
2019,04,06,07,04,27.40
2019,04,06,07,05,41.80
2019,04,06,07,06,40.20
2019,04,06,07,07,37.00
2019,04,06,07,08,25.70
2019,04,06,07,09,43.50
2019,04,06,07,10,56.30
2019,04,06,07,11,41.80
2019,04,06,07,12,30.60
2019,04,06,07,13,32.20
2019,04,06,07,14,41.80
2019,04,06,07,15,56.30
2019,04,06,07,16,22.50
2019,04,06,07,17,29.00
2019,04,06,07,18,24.20
2019,04,06,07,19,27.40
2019,04,06,07,20,27.40
2019,04,06,07,21,33.80
2019,04,06,07,22,37.00
2019,04,06,07,23,46.70
2019,04,06,07,24,38.60
2019,04,06,07,25,30.60
2019,04,06,07,26,40.20
2019,04,06,07,27,19.30
2019,04,06,07,28,35.40
2019,04,06,07,29,37.00
2019,04,06,07,30,32.20
2019,04,06,07,31,46.70
2019,04,06,07,32,40.20
2019,04,06,07,33,43.50
2019,04,06,07,34,46.70
2019,04,06,07,35,33.80
2019,04,06,07,36,40.20
2019,04,06,07,37,25.70
2019,04,06,07,38,35.40
2019,04,06,07,39,30.60
2019,04,06,07,40,37.00
2019,04,06,07,41,33.80
2019,04,06,07,42,38.60
2019,04,06,07,43,51.50
2019,04,06,07,44,45.10
2019,04,06,07,45,37.00
2019,04,06,07,46,43.50
2019,04,06,07,47,29.00
2019,04,06,07,48,45.10
2019,04,06,07,49,54.70
2019,04,06,07,50,40.20
2019,04,06,07,51,51.50
2019,04,06,07,52,43.50
2019,04,06,07,53,38.60
2019,04,06,07,54,56.30
2019,04,06,07,55,35.40
2019,04,06,07,56,29.00
2019,04,06,07,57,24.20
2019,04,06,07,58,27.40
2019,04,06,07,59,24.20
2019,04,06,08,00,33.80
2019,04,06,08,01,22.50
2019,04,06,08,02,33.80
2019,04,06,08,03,19.30
2019,04,06,08,04,19.30
2019,04,06,08,05,27.40
2019,04,06,08,06,30.60
2019,04,06,08,07,30.60
2019,04,06,08,08,33.80
2019,04,06,08,09,33.80
2019,04,06,08,10,41.80
2019,04,06,08,11,35.40
2019,04,06,08,12,20.90
2019,04,06,08,13,29.00
2019,04,06,08,14,20.90
2019,04,06,08,15,17.70
2019,04,06,08,16,17.70
2019,04,06,08,17,20.90
2019,04,06,08,18,24.20
2019,04,06,08,19,22.50
2019,04,06,08,20,32.20
2019,04,06,08,21,32.20
2019,04,06,08,22,25.70
2019,04,06,08,23,27.40
2019,04,06,08,24,29.00
2019,04,06,08,25,30.60
2019,04,06,08,26,29.00
2019,04,06,08,27,25.70
2019,04,06,08,28,24.20
2019,04,06,08,29,25.70
2019,04,06,08,30,40.20
2019,04,06,08,31,29.00
2019,04,06,08,32,30.60
2019,04,06,08,33,29.00
2019,04,06,08,34,22.50
2019,04,06,08,35,33.80
2019,04,06,08,36,33.80
2019,04,06,08,37,24.20
2019,04,06,08,38,19.30
2019,04,06,08,39,35.40
2019,04,06,08,40,35.40
2019,04,06,08,41,29.00
2019,04,06,08,42,40.20
2019,04,06,08,43,24.20
2019,04,06,08,44,38.60
2019,04,06,08,45,35.40
2019,04,06,08,46,32.20
2019,04,06,08,47,37.00
2019,04,06,08,48,32.20
2019,04,06,08,49,29.00
2019,04,06,08,50,37.00
2019,04,06,08,51,17.70
2019,04,06,08,52,19.30
2019,04,06,08,53,32.20
2019,04,06,08,54,32.20
2019,04,06,08,55,25.70
2019,04,06,08,56,32.20
2019,04,06,08,57,41.80
2019,04,06,08,58,32.20
2019,04,06,08,59,25.70
2019,04,06,09,00,32.20
2019,04,06,09,01,27.40
2019,04,06,09,02,30.60
2019,04,06,09,03,30.60
2019,04,06,09,04,25.70
2019,04,06,09,05,25.70
2019,04,06,09,06,25.70
2019,04,06,09,07,25.70
2019,04,06,09,08,32.20
2019,04,06,09,09,32.20
2019,04,06,09,10,22.50
2019,04,06,09,11,20.90
2019,04,06,09,12,30.60
2019,04,06,09,13,25.70
2019,04,06,09,14,35.40
2019,04,06,09,15,29.00
2019,04,06,09,16,29.00
2019,04,06,09,17,37.00
2019,04,06,09,18,43.50
2019,04,06,09,19,29.00
2019,04,06,09,20,24.20
2019,04,06,09,21,24.20
2019,04,06,09,22,27.40
2019,04,06,09,23,32.20
2019,04,06,09,24,45.10
2019,04,06,09,25,29.00
2019,04,06,09,26,38.60
2019,04,06,09,27,30.60
2019,04,06,09,28,33.80
2019,04,06,09,29,27.40
2019,04,06,09,30,30.60
2019,04,06,09,31,37.00
2019,04,06,09,32,25.70
2019,04,06,09,33,22.50
2019,04,06,09,34,29.00
2019,04,06,09,35,25.70
2019,04,06,09,36,30.60
2019,04,06,09,37,45.10
2019,04,06,09,38,48.30
2019,04,06,09,39,25.70
2019,04,06,09,40,25.70
2019,04,06,09,41,43.50
2019,04,06,09,42,37.00
2019,04,06,09,43,54.70
2019,04,06,09,44,22.50
2019,04,06,09,45,38.60
2019,04,06,09,46,46.70
2019,04,06,09,47,53.10
2019,04,06,09,48,43.50
2019,04,06,09,49,56.30
2019,04,06,09,50,43.50
2019,04,06,09,51,56.30
2019,04,06,09,52,45.10
2019,04,06,09,53,45.10
2019,04,06,09,54,51.50
2019,04,06,09,55,46.70
2019,04,06,09,56,29.00
2019,04,06,09,57,25.70
2019,04,06,09,58,38.60
2019,04,06,09,59,46.70
2019,04,06,10,00,48.30
2019,04,06,10,01,51.50
2019,04,06,10,02,35.40
2019,04,06,10,03,32.20
2019,04,06,10,04,40.20
2019,04,06,10,05,53.10
2019,04,06,10,06,45.10
2019,04,06,10,07,53.10
2019,04,06,10,08,53.10
2019,04,06,10,09,48.30
2019,04,06,10,10,37.00
2019,04,06,10,11,51.50
2019,04,06,10,12,48.30
2019,04,06,10,13,43.50
2019,04,06,10,14,37.00
2019,04,06,10,15,40.20
2019,04,06,10,16,59.50
2019,04,06,10,17,51.50
2019,04,06,10,18,37.00
2019,04,06,10,19,59.50
2019,04,06,10,20,57.90
2019,04,06,10,21,38.60
2019,04,06,10,22,38.60
2019,04,06,10,23,41.80
2019,04,06,10,24,59.50
2019,04,06,10,25,74.00
2019,04,06,10,26,69.20
2019,04,06,10,27,49.90
2019,04,06,10,28,46.70
2019,04,06,10,29,37.00
2019,04,06,10,30,51.50
2019,04,06,10,31,61.20
2019,04,06,10,32,70.80
2019,04,06,10,33,59.50
2019,04,06,10,34,48.30
2019,04,06,10,35,40.20
2019,04,06,10,36,43.50
2019,04,06,10,37,43.50
2019,04,06,10,38,48.30
2019,04,06,10,39,49.90
2019,04,06,10,40,43.50
2019,04,06,10,41,57.90
2019,04,06,10,42,51.50
2019,04,06,10,43,48.30
2019,04,06,10,44,38.60
2019,04,06,10,45,24.20
2019,04,06,10,46,38.60
2019,04,06,10,47,35.40
2019,04,06,10,48,48.30
2019,04,06,10,49,49.90
2019,04,06,10,50,40.20
2019,04,06,10,51,38.60
2019,04,06,10,52,38.60
2019,04,06,10,53,43.50
2019,04,06,10,54,53.10
2019,04,06,10,55,53.10
2019,04,06,10,56,56.30
2019,04,06,10,57,66.00
2019,04,06,10,58,41.80
2019,04,06,10,59,61.20
2019,04,06,11,00,62.70
2019,04,06,11,01,56.30
2019,04,06,11,02,40.20
2019,04,06,11,03,30.60
2019,04,06,11,04,46.70
2019,04,06,11,05,48.30
2019,04,06,11,06,38.60
2019,04,06,11,07,61.20
2019,04,06,11,08,38.60
2019,04,06,11,09,54.70
2019,04,06,11,10,43.50
2019,04,06,11,11,49.90
2019,04,06,11,12,35.40
2019,04,06,11,13,56.30
2019,04,06,11,14,43.50
2019,04,06,11,15,37.00
2019,04,06,11,16,67.60
2019,04,06,11,17,46.70
2019,04,06,11,18,45.10
2019,04,06,11,19,29.00
2019,04,06,11,20,59.50
2019,04,06,11,21,48.30
2019,04,06,11,22,30.60
2019,04,06,11,23,32.20
2019,04,06,11,24,57.90
2019,04,06,11,25,37.00
2019,04,06,11,26,41.80
2019,04,06,11,27,40.20
2019,04,06,11,28,48.30
2019,04,06,11,29,25.70
2019,04,06,11,30,56.30
2019,04,06,11,31,48.30
2019,04,06,11,32,35.40
2019,04,06,11,33,53.10
2019,04,06,11,34,46.70
2019,04,06,11,35,48.30
2019,04,06,11,36,56.30
2019,04,06,11,37,48.30
2019,04,06,11,38,29.00
2019,04,06,11,39,41.80
2019,04,06,11,40,41.80
2019,04,06,11,41,62.70
2019,04,06,11,42,72.40
2019,04,06,11,43,45.10
2019,04,06,11,44,38.60
2019,04,06,11,45,32.20
2019,04,06,11,46,49.90
2019,04,06,11,47,61.20
2019,04,06,11,48,38.60
2019,04,06,11,49,46.70
2019,04,06,11,50,56.30
2019,04,06,11,51,51.50
2019,04,06,11,52,64.40
2019,04,06,11,53,40.20
2019,04,06,11,54,27.40
2019,04,06,11,55,43.50
2019,04,06,11,56,53.10
2019,04,06,11,57,62.70
2019,04,06,11,58,37.00
2019,04,06,11,59,74.00
2019,04,06,12,00,69.20
2019,04,06,12,01,53.10
2019,04,06,12,02,49.90
2019,04,06,12,03,53.10
2019,04,06,12,04,61.20
2019,04,06,12,05,54.70
2019,04,06,12,06,43.50
2019,04,06,12,07,40.20
2019,04,06,12,08,45.10
2019,04,06,12,09,53.10
2019,04,06,12,10,59.50
2019,04,06,12,11,78.80
2019,04,06,12,12,43.50
2019,04,06,12,13,54.70
2019,04,06,12,14,49.90
2019,04,06,12,15,56.30
2019,04,06,12,16,66.00
2019,04,06,12,17,56.30
2019,04,06,12,18,56.30
2019,04,06,12,19,66.00
2019,04,06,12,20,61.20
2019,04,06,12,21,41.80
2019,04,06,12,22,67.60
2019,04,06,12,23,51.50
2019,04,06,12,24,46.70
2019,04,06,12,25,61.20
2019,04,06,12,26,51.50
2019,04,06,12,27,51.50
2019,04,06,12,28,37.00
2019,04,06,12,29,56.30
2019,04,06,12,30,51.50
2019,04,06,12,31,62.70
2019,04,06,12,32,57.90
2019,04,06,12,33,59.50
2019,04,06,12,34,51.50
2019,04,06,12,35,59.50
2019,04,06,12,36,59.50
2019,04,06,12,37,46.70
2019,04,06,12,38,41.80
2019,04,06,12,39,43.50
2019,04,06,12,40,59.50
2019,04,06,12,41,48.30
2019,04,06,12,42,38.60
2019,04,06,12,43,40.20
2019,04,06,12,44,43.50
2019,04,06,12,45,54.70
2019,04,06,12,46,46.70
2019,04,06,12,47,51.50
2019,04,06,12,48,40.20
2019,04,06,12,49,61.20
2019,04,06,12,50,59.50
2019,04,06,12,51,41.80
2019,04,06,12,52,37.00
2019,04,06,12,53,48.30
2019,04,06,12,54,48.30
2019,04,06,12,55,53.10
2019,04,06,12,56,43.50
2019,04,06,12,57,40.20
2019,04,06,12,58,69.20
2019,04,06,12,59,53.10
2019,04,06,13,00,49.90
2019,04,06,13,01,45.10
2019,04,06,13,02,40.20
2019,04,06,13,03,59.50
2019,04,06,13,04,57.90
2019,04,06,13,05,45.10
2019,04,06,13,06,32.20
2019,04,06,13,07,61.20
2019,04,06,13,08,46.70
2019,04,06,13,09,62.70
2019,04,06,13,10,62.70
2019,04,06,13,11,49.90
2019,04,06,13,12,48.30
2019,04,06,13,13,43.50
2019,04,06,13,14,54.70
2019,04,06,13,15,49.90
2019,04,06,13,16,37.00
2019,04,06,13,17,64.40
2019,04,06,13,18,48.30
2019,04,06,13,19,43.50
2019,04,06,13,20,51.50
2019,04,06,13,21,45.10
2019,04,06,13,22,32.20
2019,04,06,13,23,37.00
2019,04,06,13,24,32.20
2019,04,06,13,25,45.10
2019,04,06,13,26,29.00
2019,04,06,13,27,29.00
2019,04,06,13,28,48.30
2019,04,06,13,29,48.30
2019,04,06,13,30,62.70
2019,04,06,13,31,66.00
2019,04,06,13,32,53.10
2019,04,06,13,33,51.50
2019,04,06,13,34,51.50
2019,04,06,13,35,49.90
2019,04,06,13,36,46.70
2019,04,06,13,37,38.60
2019,04,06,13,38,43.50
2019,04,06,13,39,33.80
2019,04,06,13,40,59.50
2019,04,06,13,41,41.80
2019,04,06,13,42,61.20
2019,04,06,13,43,59.50
2019,04,06,13,44,43.50
2019,04,06,13,45,45.10
2019,04,06,13,46,43.50
2019,04,06,13,47,57.90
2019,04,06,13,48,45.10
2019,04,06,13,49,48.30
2019,04,06,13,50,40.20
2019,04,06,13,51,41.80
2019,04,06,13,52,56.30
2019,04,06,13,53,64.40
2019,04,06,13,54,46.70
2019,04,06,13,55,56.30
2019,04,06,13,56,53.10
2019,04,06,13,57,51.50
2019,04,06,13,58,59.50
2019,04,06,13,59,46.70
2019,04,06,14,00,66.00
2019,04,06,14,01,59.50
2019,04,06,14,02,64.40
2019,04,06,14,03,38.60
2019,04,06,14,04,43.50
2019,04,06,14,05,45.10
2019,04,06,14,06,49.90
2019,04,06,14,07,69.20
2019,04,06,14,08,46.70
2019,04,06,14,09,59.50
2019,04,06,14,10,62.70
2019,04,06,14,11,49.90
2019,04,06,14,12,46.70
2019,04,06,14,13,37.00
2019,04,06,14,14,45.10
2019,04,06,14,15,61.20
2019,04,06,14,16,51.50
2019,04,06,14,17,35.40
2019,04,06,14,18,46.70
2019,04,06,14,19,66.00
2019,04,06,14,20,54.70
2019,04,06,14,21,57.90
2019,04,06,14,22,38.60
2019,04,06,14,23,48.30
2019,04,06,14,24,45.10
2019,04,06,14,25,38.60
2019,04,06,14,26,46.70
2019,04,06,14,27,32.20
2019,04,06,14,28,57.90
2019,04,06,14,29,53.10
2019,04,06,14,30,54.70
2019,04,06,14,31,54.70
2019,04,06,14,32,83.70
2019,04,06,14,33,51.50
2019,04,06,14,34,49.90
2019,04,06,14,35,48.30
2019,04,06,14,36,49.90
2019,04,06,14,37,53.10
2019,04,06,14,38,56.30
2019,04,06,14,39,56.30
2019,04,06,14,40,46.70
2019,04,06,14,41,45.10
2019,04,06,14,42,38.60
2019,04,06,14,43,51.50
2019,04,06,14,44,43.50
2019,04,06,14,45,43.50
2019,04,06,14,46,51.50
2019,04,06,14,47,37.00
2019,04,06,14,48,40.20
2019,04,06,14,49,33.80
2019,04,06,14,50,67.60
2019,04,06,14,51,54.70
2019,04,06,14,52,41.80
2019,04,06,14,53,45.10
2019,04,06,14,54,43.50
2019,04,06,14,55,49.90
2019,04,06,14,56,51.50
2019,04,06,14,57,46.70
2019,04,06,14,58,37.00
2019,04,06,14,59,40.20
2019,04,06,15,00,45.10
2019,04,06,15,01,38.60
2019,04,06,15,02,33.80
2019,04,06,15,03,32.20
2019,04,06,15,04,32.20
2019,04,06,15,05,38.60
2019,04,06,15,06,22.50
2019,04,06,15,07,20.90
2019,04,06,15,08,25.70
2019,04,06,15,09,35.40
2019,04,06,15,10,45.10
2019,04,06,15,11,49.90
2019,04,06,15,12,30.60
2019,04,06,15,13,24.20
2019,04,06,15,14,30.60
2019,04,06,15,15,35.40
2019,04,06,15,16,27.40
2019,04,06,15,17,22.50
2019,04,06,15,18,30.60
2019,04,06,15,19,29.00
2019,04,06,15,20,38.60
2019,04,06,15,21,27.40
2019,04,06,15,22,33.80
2019,04,06,15,23,24.20
2019,04,06,15,24,22.50
2019,04,06,15,25,24.20
2019,04,06,15,26,27.40
2019,04,06,15,27,32.20
2019,04,06,15,28,30.60
2019,04,06,15,29,17.70
2019,04,06,15,30,35.40
2019,04,06,15,31,22.50
2019,04,06,15,32,25.70
2019,04,06,15,33,30.60
2019,04,06,15,34,22.50
2019,04,06,15,35,30.60
2019,04,06,15,36,30.60
2019,04,06,15,37,43.50
2019,04,06,15,38,40.20
2019,04,06,15,39,22.50
2019,04,06,15,40,30.60
2019,04,06,15,41,29.00
2019,04,06,15,42,30.60
2019,04,06,15,43,49.90
2019,04,06,15,44,24.20
2019,04,06,15,45,41.80
2019,04,06,15,46,32.20
2019,04,06,15,47,25.70
2019,04,06,15,48,40.20
2019,04,06,15,49,40.20
2019,04,06,15,50,30.60
2019,04,06,15,51,19.30
2019,04,06,15,52,20.90
2019,04,06,15,53,29.00
2019,04,06,15,54,25.70
2019,04,06,15,55,40.20
2019,04,06,15,56,38.60
2019,04,06,15,57,41.80
2019,04,06,15,58,32.20
2019,04,06,15,59,33.80
2019,04,06,16,00,33.80
2019,04,06,16,01,20.90
2019,04,06,16,02,35.40
2019,04,06,16,03,40.20
2019,04,06,16,04,27.40
2019,04,06,16,05,37.00
2019,04,06,16,06,43.50
2019,04,06,16,07,49.90
2019,04,06,16,08,51.50
2019,04,06,16,09,37.00
2019,04,06,16,10,33.80
2019,04,06,16,11,45.10
2019,04,06,16,12,59.50
2019,04,06,16,13,48.30
2019,04,06,16,14,37.00
2019,04,06,16,15,49.90
2019,04,06,16,16,46.70
2019,04,06,16,17,53.10
2019,04,06,16,18,53.10
2019,04,06,16,19,57.90
2019,04,06,16,20,43.50
2019,04,06,16,21,66.00
2019,04,06,16,22,43.50
2019,04,06,16,23,48.30
2019,04,06,16,24,45.10
2019,04,06,16,25,54.70
2019,04,06,16,26,56.30
2019,04,06,16,27,54.70
2019,04,06,16,28,41.80
2019,04,06,16,29,45.10
2019,04,06,16,30,45.10
2019,04,06,16,31,38.60
2019,04,06,16,32,27.40
2019,04,06,16,33,38.60
2019,04,06,16,34,38.60
2019,04,06,16,35,30.60
2019,04,06,16,36,25.70
2019,04,06,16,37,43.50
2019,04,06,16,38,29.00
2019,04,06,16,39,46.70
2019,04,06,16,40,45.10
2019,04,06,16,41,45.10
2019,04,06,16,42,32.20
2019,04,06,16,43,33.80
2019,04,06,16,44,38.60
2019,04,06,16,45,27.40
2019,04,06,16,46,37.00
2019,04,06,16,47,20.90
2019,04,06,16,48,24.20
2019,04,06,16,49,40.20
2019,04,06,16,50,43.50
2019,04,06,16,51,25.70
2019,04,06,16,52,25.70
2019,04,06,16,53,27.40
2019,04,06,16,54,32.20
2019,04,06,16,55,22.50
2019,04,06,16,56,27.40
2019,04,06,16,57,22.50
2019,04,06,16,58,33.80
2019,04,06,16,59,27.40
2019,04,06,17,00,30.60
2019,04,06,17,01,22.50
2019,04,06,17,02,24.20
2019,04,06,17,03,35.40
2019,04,06,17,04,38.60
2019,04,06,17,05,27.40
2019,04,06,17,06,38.60
2019,04,06,17,07,29.00
2019,04,06,17,08,22.50
2019,04,06,17,09,22.50
2019,04,06,17,10,20.90
2019,04,06,17,11,8.10
2019,04,06,17,12,33.80
2019,04,06,17,13,24.20
2019,04,06,17,14,17.70
2019,04,06,17,15,20.90
2019,04,06,17,16,25.70
2019,04,06,17,17,22.50
2019,04,06,17,18,29.00
2019,04,06,17,19,41.80
2019,04,06,17,20,41.80
2019,04,06,17,21,32.20
2019,04,06,17,22,30.60
2019,04,06,17,23,33.80
2019,04,06,17,24,38.60
2019,04,06,17,25,24.20
2019,04,06,17,26,40.20
2019,04,06,17,27,24.20
2019,04,06,17,28,17.70
2019,04,06,17,29,19.30